K4GZX-11 Weather Reports


Display with metric or nautical units.
time (UTC)temp
F
wind
direction
speed
MPH
gust
MPH
rain 1hr
in
rain 24hr
in
rain mn
in
humidity
%
barometer
mb
20260906003746 76 1 0.0 0.0 0.00 0.07 0.00 85 1012.9
20260906003246 76 1 0.0 0.0 0.00 0.07 0.00 85 1012.8
20260906002746 76 1 0.0 0.0 0.00 0.07 0.00 85 1012.7
20260906002245 76 1 0.0 0.0 0.00 0.07 0.00 85 1012.6
20260906001746 76 1 0.0 0.0 0.00 0.07 0.00 85 1012.5
20260906001246 76 1 0.0 0.0 0.00 0.07 0.00 85 1012.6
20260906000750 76 1 0.0 0.0 0.00 0.07 0.00 85 1012.4
20260906000258 76 1 0.0 0.0 0.00 0.07 0.00 85 1012.4
20260905235745 76 1 0.0 0.0 0.00 0.07 0.07 85 1012.3
20260905235247 76 1 0.0 0.0 0.00 0.07 0.07 85 1012.3
20260905234755 76 1 0.0 0.0 0.00 0.07 0.07 85 1012.2
20260905234302 76 1 0.0 0.0 0.00 0.07 0.07 85 1012.1
20260905233758 76 1 0.0 0.0 0.00 0.07 0.07 85 1012.1
20260905233246 76 1 0.0 0.0 0.00 0.07 0.07 85 1012.0
20260905232749 76 1 0.0 0.0 0.00 0.07 0.07 85 1012.0
20260905232257 76 1 0.0 0.0 0.00 0.07 0.07 85 1012.0
20260905231804 76 1 0.0 0.0 0.00 0.07 0.07 85 1012.0
20260905231312 76 1 0.0 0.0 0.00 0.07 0.07 85 1012.1
20260905230746 76 1 0.0 0.0 0.00 0.07 0.07 84 1012.0
20260905230245 76 1 0.0 0.0 0.00 0.07 0.07 84 1011.9
20260905225746 77 1 0.0 0.0 0.00 0.07 0.07 84 1012.0
20260905225246 77 1 0.0 0.0 0.00 0.07 0.07 84 1012.1
20260905224745 77 1 0.0 0.0 0.00 0.07 0.07 84 1012.1
20260905224245 77 1 0.0 0.0 0.00 0.07 0.07 84 1012.2
20260905223745 77 1 0.0 0.0 0.00 0.07 0.07 84 1012.1
20260905223245 77 1 0.0 0.0 0.00 0.07 0.07 84 1012.0
20260905222746 77 1 0.0 0.0 0.00 0.07 0.07 84 1012.0
20260905222245 77 1 0.0 0.0 0.00 0.07 0.07 84 1011.8
20260905221745 77 1 0.0 0.0 0.00 0.07 0.07 83 1011.7
20260905221246 77 1 0.0 0.0 0.00 0.07 0.07 82 1011.6
20260905220745 77 1 0.0 0.0 0.01 0.07 0.07 82 1011.6
20260905220251 77 1 0.0 0.0 0.01 0.07 0.07 80 1011.7
20260905215751 78 1 0.0 0.0 0.01 0.07 0.07 80 1011.8
20260905215258 78 1 0.0 0.0 0.02 0.07 0.07 80 1012.0
20260905214806 78 1 0.0 0.0 0.06 0.07 0.07 80 1011.9
20260905214314 78 1 0.0 0.0 0.07 0.07 0.07 79 1012.1
20260905213809 79 1 0.0 0.0 0.07 0.07 0.07 79 1012.5
20260905213316 79 1 0.0 0.0 0.07 0.07 0.07 79 1012.4
20260905212812 79 1 0.0 0.0 0.07 0.07 0.07 79 1012.5
20260905212319 79 1 0.0 0.0 0.07 0.07 0.07 79 1012.3
20260905211802 80 1 0.0 1.0 0.07 0.07 0.07 76 1012.4
20260905211310 81 1 0.0 1.0 0.07 0.07 0.07 75 1012.6
20260905210745 81 1 0.0 1.0 0.06 0.06 0.06 74 1012.5
20260905210245 82 1 0.0 0.0 0.06 0.06 0.06 72 1012.7
20260905205746 82 1 0.0 1.0 0.06 0.06 0.06 71 1012.7
20260905205246 84 1 0.0 3.0 0.05 0.05 0.05 67 1012.8
20260905204745 86 1 0.0 3.0 0.01 0.01 0.01 61 1012.9
20260905204246 88 1 0.0 6.0 0.00 0.00 0.00 55 1012.8
20260905203745 90 1 2.0 6.0 0.00 0.00 0.00 49 1012.7
20260905203245 94 103 0.0 3.0 0.00 0.00 0.00 45 1012.2
20260905202745 97 103 0.0 0.0 0.00 0.00 0.00 41 1011.8
20260905202245 99 103 0.0 0.0 0.00 0.00 0.00 40 1011.5
20260905201745 99 103 0.0 0.0 0.00 0.00 0.00 39 1011.2
20260905201245 99 103 0.0 0.0 0.00 0.00 0.00 38 1011.3
20260905200745 99 103 0.0 0.0 0.00 0.00 0.00 38 1011.1
20260905200245 100 103 0.0 0.0 0.00 0.00 0.00 38 1011.0
20260905195745 100 103 0.0 0.0 0.00 0.00 0.00 38 1011.3
20260905195245 101 103 0.0 0.0 0.00 0.00 0.00 38 1011.4
20260905194745 101 103 0.0 0.0 0.00 0.00 0.00 37 1011.4
20260905194246 102 103 0.0 0.0 0.00 0.00 0.00 35 1011.4
20260905193750 103 103 0.0 0.0 0.00 0.00 0.00 34 1011.3
20260905193257 104 103 0.0 1.0 0.00 0.00 0.00 34 1011.3
20260905192747 104 103 0.0 1.0 0.00 0.00 0.00 34 1011.4
20260905192255 104 103 0.0 1.0 0.00 0.00 0.00 33 1011.4
20260905191757 104 103 0.0 1.0 0.00 0.00 0.00 35 1011.6
20260905191245 104 103 0.0 1.0 0.00 0.00 0.00 34 1011.6
20260905190745 104 103 0.0 1.0 0.00 0.00 0.00 36 1011.6
20260905190245 103 103 0.0 0.0 0.00 0.00 0.00 36 1011.7
20260905185750 103 103 0.0 0.0 0.00 0.00 0.00 37 1011.7
20260905185257 102 103 0.0 1.0 0.00 0.00 0.00 38 1011.8
20260905184750 102 103 0.0 1.0 0.00 0.00 0.00 37 1011.8
20260905184257 102 103 0.0 0.0 0.00 0.00 0.00 38 1011.8
20260905183745 102 103 0.0 0.0 0.00 0.00 0.00 38 1011.9
20260905182849 103 103 0.0 0.0 0.00 0.00 0.00 37 1012.1
20260905182351 103 103 0.0 4.0 0.00 0.00 0.00 36 1012.2
20260905181858 104 103 0.0 4.0 0.00 0.00 0.00 37 1012.2
20260905181405 103 103 0.0 0.0 0.00 0.00 0.00 38 1012.4
20260905180901 103 103 0.0 0.0 0.00 0.00 0.00 39 1012.6
20260905180349 102 103 0.0 1.0 0.00 0.00 0.00 38 1012.6
20260905175848 102 103 0.0 1.0 0.00 0.00 0.00 37 1012.6
20260905175353 102 103 0.0 1.0 0.00 0.00 0.00 37 1012.5
20260905174901 101 103 0.0 1.0 0.00 0.00 0.00 39 1012.7
20260905174348 102 103 0.0 1.0 0.00 0.00 0.00 37 1012.6
20260905173853 101 103 0.0 0.0 0.00 0.00 0.00 38 1012.7
20260905173401 100 103 0.0 2.0 0.00 0.00 0.00 40 1012.8
20260905172849 100 103 0.0 2.0 0.00 0.00 0.00 41 1012.9
20260905172348 99 103 0.0 0.0 0.00 0.00 0.00 42 1013.0
20260905171849 99 103 0.0 0.0 0.00 0.00 0.00 42 1013.1
20260905171353 99 103 0.0 0.0 0.00 0.00 0.00 43 1013.1
20260905170900 98 103 0.0 0.0 0.00 0.00 0.00 45 1013.3
20260905170348 98 103 0.0 0.0 0.00 0.00 0.00 44 1013.4
20260905165855 97 103 0.0 0.0 0.00 0.00 0.00 46 1013.5
20260905165401 97 103 0.0 0.0 0.00 0.00 0.00 46 1013.6
20260905164848 97 103 0.0 0.0 0.00 0.00 0.00 45 1013.7
20260905164349 97 103 0.0 0.0 0.00 0.00 0.00 45 1013.8
20260905163849 97 103 0.0 0.0 0.00 0.00 0.00 47 1013.8
20260905163348 97 103 0.0 0.0 0.00 0.00 0.00 48 1013.9
20260905162848 96 103 0.0 0.0 0.00 0.00 0.00 48 1013.9
20260905162348 95 103 0.0 0.0 0.00 0.00 0.00 49 1014.0
20260905161849 95 103 0.0 1.0 0.00 0.00 0.00 49 1014.1
20260905161349 95 103 0.0 2.0 0.00 0.00 0.00 49 1014.2
20260905160849 94 103 0.0 2.0 0.00 0.00 0.00 49 1014.2
20260905160351 94 103 0.0 0.0 0.00 0.00 0.00 51 1014.2
20260905155853 94 103 0.0 0.0 0.00 0.00 0.00 52 1014.3
20260905155400 93 103 0.0 0.0 0.00 0.00 0.00 54 1014.3
20260905154849 92 103 0.0 1.0 0.00 0.00 0.00 54 1014.3
20260905154350 92 103 0.0 1.0 0.00 0.00 0.00 54 1014.3
20260905153858 92 103 0.0 0.0 0.00 0.00 0.00 56 1014.3
20260905153405 91 103 0.0 0.0 0.00 0.00 0.00 57 1014.4
20260905152913 90 103 0.0 0.0 0.00 0.00 0.00 59 1014.5
20260905152353 89 103 0.0 0.0 0.00 0.00 0.00 63 1014.5
20260905151900 88 103 0.0 1.0 0.00 0.00 0.00 64 1014.6
20260905151349 87 103 0.0 1.0 0.00 0.00 0.00 64 1014.6
20260905150848 87 103 0.0 0.0 0.00 0.00 0.00 67 1014.6
20260905150348 86 103 0.0 0.0 0.00 0.00 0.00 69 1014.8
20260905145848 86 103 0.0 0.0 0.00 0.00 0.00 68 1014.8
20260905145349 85 103 0.0 0.0 0.00 0.00 0.00 70 1014.9
20260905144849 84 103 0.0 0.0 0.00 0.00 0.00 72 1014.9
20260905144348 83 103 0.0 0.0 0.00 0.00 0.00 74 1015.0
20260905143848 83 103 0.0 0.0 0.00 0.00 0.00 73 1015.0
20260905143348 82 103 0.0 0.0 0.00 0.00 0.00 77 1015.1
20260905142848 81 103 0.0 0.0 0.00 0.00 0.00 78 1015.1
20260905142349 80 103 0.0 0.0 0.00 0.00 0.00 80 1015.1
20260905141848 80 103 0.0 0.0 0.00 0.00 0.00 82 1015.0
20260905141348 79 103 0.0 0.0 0.00 0.00 0.00 83 1015.1
20260905140848 78 103 0.0 0.0 0.00 0.00 0.00 84 1015.0
20260905140348 78 103 0.0 0.0 0.00 0.00 0.00 85 1015.1
20260905135848 77 103 0.0 0.0 0.00 0.00 0.00 85 1015.0
20260905135145 77 103 0.0 0.0 0.00 0.00 0.00 86 1015.0
20260905134646 76 103 0.0 0.0 0.00 0.00 0.00 87 1015.1
20260905134145 76 103 0.0 0.0 0.00 0.00 0.00 87 1015.2
20260905133645 76 103 0.0 0.0 0.00 0.00 0.00 87 1015.2
20260905133145 75 103 0.0 0.0 0.00 0.00 0.00 87 1015.3
20260905132646 75 103 0.0 0.0 0.00 0.00 0.00 87 1015.2
20260905132145 74 103 0.0 0.0 0.00 0.00 0.00 87 1015.3
20260905131645 74 103 0.0 0.0 0.00 0.00 0.00 87 1015.3
20260905131147 74 103 0.0 0.0 0.00 0.00 0.00 86 1015.3
20260905130655 74 103 0.0 0.0 0.00 0.00 0.00 86 1015.4
20260905130202 73 103 0.0 0.0 0.00 0.00 0.00 86 1015.3
20260905125658 73 103 0.0 0.0 0.00 0.00 0.00 86 1015.3
20260905125145 73 103 0.0 0.0 0.00 0.00 0.00 86 1015.3
20260905124645 73 103 0.0 0.0 0.00 0.00 0.00 86 1015.2
20260905124145 73 103 0.0 0.0 0.00 0.00 0.00 86 1015.2
20260905123648 72 103 0.0 0.0 0.00 0.00 0.00 86 1015.2
20260905123145 72 103 0.0 0.0 0.00 0.00 0.00 86 1015.1
20260905122645 72 103 0.0 0.0 0.00 0.00 0.00 85 1015.1
20260905122146 72 103 0.0 0.0 0.00 0.00 0.00 85 1015.1
20260905121646 72 103 0.0 0.0 0.00 0.00 0.00 85 1015.1
20260905121145 72 103 0.0 0.0 0.00 0.00 0.00 85 1015.2
20260905120647 72 103 0.0 0.0 0.00 0.00 0.00 85 1015.1
20260905120154 72 103 0.0 0.0 0.00 0.00 0.00 85 1015.0
20260905115702 72 103 0.0 0.0 0.00 0.00 0.00 85 1015.0
20260905115210 72 103 0.0 0.0 0.00 0.00 0.00 84 1014.9
20260905114645 72 103 0.0 0.0 0.00 0.00 0.00 84 1014.8
20260905114145 72 103 0.0 0.0 0.00 0.00 0.00 84 1014.7
20260905113645 72 103 0.0 0.0 0.00 0.00 0.00 84 1014.8
20260905113150 72 103 0.0 0.0 0.00 0.00 0.00 84 1014.7
20260905112657 72 103 0.0 0.0 0.00 0.00 0.00 84 1014.6
20260905112145 72 103 0.0 0.0 0.00 0.00 0.00 84 1014.5
20260905111645 72 103 0.0 0.0 0.00 0.00 0.00 84 1014.4
20260905111145 72 103 0.0 0.0 0.00 0.00 0.00 84 1014.4
20260905110645 72 103 0.0 0.0 0.00 0.00 0.00 84 1014.4
20260905110145 72 103 0.0 0.0 0.00 0.00 0.00 84 1014.5
20260905105645 72 103 0.0 0.0 0.00 0.00 0.00 84 1014.4
20260905105145 72 103 0.0 0.0 0.00 0.00 0.00 83 1014.4
20260905104646 72 103 0.0 0.0 0.00 0.00 0.00 83 1014.4
20260905104145 72 103 0.0 0.0 0.00 0.00 0.00 83 1014.3
20260905103645 72 103 0.0 0.0 0.00 0.00 0.00 83 1014.3
20260905103145 72 103 0.0 0.0 0.00 0.00 0.00 83 1014.4
20260905102645 72 103 0.0 0.0 0.00 0.00 0.00 83 1014.3
20260905102145 72 103 0.0 0.0 0.00 0.00 0.00 83 1014.2
20260905101645 73 103 0.0 0.0 0.00 0.00 0.00 83 1014.1
20260905101145 73 103 0.0 0.0 0.00 0.00 0.00 83 1014.2
20260905100650 73 103 0.0 0.0 0.00 0.00 0.00 83 1014.1
20260905100158 73 103 0.0 0.0 0.00 0.00 0.00 83 1014.2
20260905095646 73 103 0.0 0.0 0.00 0.00 0.00 83 1014.2
20260905095145 73 103 0.0 0.0 0.00 0.00 0.00 82 1014.2
20260905094645 73 103 0.0 0.0 0.00 0.00 0.00 82 1014.1
20260905094150 73 103 0.0 0.0 0.00 0.00 0.00 82 1014.2
20260905093657 73 103 0.0 0.0 0.00 0.00 0.00 82 1014.2
20260905093146 73 103 0.0 0.0 0.00 0.00 0.00 82 1014.2
20260905092645 73 103 0.0 0.0 0.00 0.00 0.00 82 1014.2
20260905092145 73 103 0.0 0.0 0.00 0.00 0.00 82 1014.2
20260905091645 73 103 0.0 0.0 0.00 0.00 0.00 82 1014.2
20260905091145 73 103 0.0 0.0 0.00 0.00 0.00 82 1014.2
20260905090645 73 103 0.0 0.0 0.00 0.00 0.00 82 1014.2
20260905090145 74 103 0.0 0.0 0.00 0.00 0.00 82 1014.2
20260905085645 74 103 0.0 0.0 0.00 0.00 0.00 82 1014.2
20260905085145 74 103 0.0 0.0 0.00 0.00 0.00 82 1014.3
20260905084645 74 103 0.0 0.0 0.00 0.00 0.00 82 1014.3
20260905084145 74 103 0.0 0.0 0.00 0.00 0.00 82 1014.4
20260905083645 74 103 0.0 0.0 0.00 0.00 0.00 82 1014.4
20260905083145 74 103 0.0 0.0 0.00 0.00 0.00 82 1014.4
20260905082645 74 103 0.0 0.0 0.00 0.00 0.00 82 1014.4
20260905082145 74 103 0.0 0.0 0.00 0.00 0.00 82 1014.4
20260905081645 74 103 0.0 0.0 0.00 0.00 0.00 82 1014.4
20260905081145 74 103 0.0 0.0 0.00 0.00 0.00 82 1014.3
20260905080645 74 103 0.0 0.0 0.00 0.00 0.00 82 1014.3
20260905080145 74 103 0.0 0.0 0.00 0.00 0.00 81 1014.4
20260905075647 74 103 0.0 0.0 0.00 0.00 0.00 81 1014.4
20260905075154 75 103 0.0 0.0 0.00 0.00 0.00 81 1014.4
20260905074702 75 103 0.0 0.0 0.00 0.00 0.00 81 1014.4
20260905074157 75 103 0.0 0.0 0.00 0.00 0.00 81 1014.3
20260905073645 75 103 0.0 0.0 0.00 0.00 0.00 81 1014.4
20260905073145 75 103 0.0 0.0 0.00 0.00 0.00 81 1014.4
20260905072331 75 103 0.0 0.0 0.00 0.00 0.00 81 1014.5
20260905071830 75 103 0.0 0.0 0.00 0.00 0.00 81 1014.4
20260905071330 75 103 0.0 0.0 0.00 0.00 0.00 81 1014.4
20260905070830 75 103 0.0 0.0 0.00 0.00 0.00 81 1014.3
20260905070330 75 103 0.0 0.0 0.00 0.00 0.00 81 1014.4
20260905065831 75 103 0.0 0.0 0.00 0.00 0.00 81 1014.5
20260905065335 75 103 0.0 0.0 0.00 0.00 0.00 80 1014.5
20260905064843 76 103 0.0 0.0 0.00 0.00 0.00 80 1014.4
20260905064330 76 103 0.0 0.0 0.00 0.00 0.00 80 1014.3
20260905063830 76 103 0.0 0.0 0.00 0.00 0.00 80 1014.4
20260905063331 76 103 0.0 0.0 0.00 0.00 0.00 79 1014.6
20260905062830 76 103 0.0 0.0 0.00 0.00 0.00 79 1014.6
20260905062330 76 103 0.0 0.0 0.00 0.00 0.00 79 1014.5
20260905061832 76 103 0.0 0.0 0.00 0.00 0.00 79 1014.6
20260905061339 76 103 0.0 0.0 0.00 0.00 0.00 79 1014.6
20260905060847 77 103 0.0 0.0 0.00 0.00 0.00 79 1014.6
20260905060342 77 103 0.0 0.0 0.00 0.00 0.00 79 1014.7
20260905055835 77 103 0.0 0.0 0.00 0.00 0.00 79 1014.8
20260905055342 77 103 0.0 0.0 0.00 0.00 0.00 79 1014.8
20260905054850 77 103 0.0 0.0 0.00 0.00 0.00 79 1014.8
20260905054357 77 103 0.0 0.0 0.00 0.00 0.00 78 1014.8
20260905053853 77 103 0.0 0.0 0.00 0.00 0.00 77 1014.7
20260905053400 77 103 0.0 0.0 0.00 0.00 0.00 77 1014.6
20260905052907 77 103 0.0 0.0 0.00 0.00 0.00 76 1014.4
20260905052330 78 103 0.0 0.0 0.00 0.00 0.00 76 1014.4
20260905051830 78 103 0.0 0.0 0.00 0.00 0.00 76 1014.6
20260905051332 78 103 0.0 0.0 0.00 0.00 0.00 76 1014.8
20260905050840 78 103 0.0 0.0 0.00 0.00 0.00 75 1014.7
20260905050347 78 103 0.0 0.0 0.00 0.00 0.00 75 1014.9
20260905045842 78 103 0.0 0.0 0.00 0.00 0.00 75 1015.0
20260905045331 78 103 0.0 0.0 0.00 0.00 0.00 75 1015.1
20260905044830 78 103 0.0 0.0 0.00 0.00 0.00 74 1015.1
20260905044331 78 103 0.0 0.0 0.00 0.00 0.00 75 1015.1
20260905043835 79 103 0.0 0.0 0.00 0.00 0.00 74 1015.3
20260905043343 79 103 0.0 0.0 0.00 0.00 0.00 74 1015.3
20260905042830 79 103 0.0 0.0 0.00 0.00 0.00 74 1015.3
20260905042330 79 103 0.0 0.0 0.00 0.00 0.00 74 1015.3
20260905041830 79 103 0.0 0.0 0.00 0.00 0.00 72 1015.4
20260905041331 80 103 0.0 0.0 0.00 0.00 0.00 73 1015.3
20260905040838 80 103 0.0 2.0 0.00 0.00 0.00 73 1015.3
20260905040345 80 103 0.0 2.0 0.00 0.00 0.00 72 1015.3
20260905035835 80 103 0.0 0.0 0.00 0.00 0.00 72 1015.2
20260905035343 80 103 0.0 0.0 0.00 0.00 0.00 70 1015.2
20260905034830 81 103 0.0 0.0 0.00 0.00 0.00 70 1015.2
20260905034330 81 103 0.0 0.0 0.00 0.00 0.00 70 1015.1
20260905033830 81 103 0.0 0.0 0.00 0.00 0.00 70 1015.2
20260905033330 81 103 0.0 0.0 0.00 0.00 0.00 70 1015.1
20260905032831 81 103 0.0 0.0 0.00 0.00 0.00 69 1015.1
20260905032330 82 103 0.0 0.0 0.00 0.00 0.00 68 1015.2
20260905031830 82 103 0.0 0.0 0.00 0.00 0.00 68 1015.3
20260905031330 82 103 0.0 0.0 0.00 0.00 0.00 67 1015.4
20260905030830 82 103 0.0 0.0 0.00 0.00 0.00 67 1015.4
20260905030330 82 103 0.0 0.0 0.00 0.00 0.00 67 1015.3
20260905025837 82 103 0.0 0.0 0.00 0.00 0.00 66 1015.4
20260905025344 83 103 0.0 0.0 0.00 0.00 0.00 66 1015.4
20260905024852 83 103 0.0 0.0 0.00 0.00 0.00 65 1015.3
20260905024342 83 103 0.0 0.0 0.00 0.00 0.00 65 1015.5
20260905023830 83 103 0.0 0.0 0.00 0.00 0.00 65 1015.5
20260905023330 84 103 0.0 0.0 0.00 0.00 0.00 65 1015.4
20260905022830 84 103 0.0 0.0 0.00 0.00 0.00 64 1015.5
20260905022330 84 103 0.0 0.0 0.00 0.00 0.00 63 1015.4
20260905021830 84 103 0.0 0.0 0.00 0.00 0.00 62 1015.5
20260905021330 85 103 0.0 0.0 0.00 0.00 0.00 62 1015.6
20260905020830 85 103 0.0 0.0 0.00 0.00 0.00 62 1015.6
20260905020330 85 103 0.0 0.0 0.00 0.00 0.00 62 1015.6
20260905015830 85 103 0.0 0.0 0.00 0.00 0.00 61 1015.6
20260905015330 86 103 0.0 0.0 0.00 0.00 0.00 59 1015.6
20260905014830 86 103 0.0 0.0 0.00 0.00 0.00 60 1015.6
20260905014330 86 103 0.0 0.0 0.00 0.00 0.00 60 1015.5
20260905013830 86 103 0.0 0.0 0.00 0.00 0.00 59 1015.5
20260905013330 87 103 0.0 0.0 0.00 0.00 0.00 58 1015.5
20260905012832 87 103 0.0 0.0 0.00 0.00 0.00 58 1015.4
20260905012339 87 103 0.0 0.0 0.00 0.00 0.00 57 1015.3
20260905011847 87 103 0.0 0.0 0.00 0.00 0.00 57 1015.3
20260905011354 88 103 0.0 0.0 0.00 0.00 0.00 57 1015.3
20260905010831 88 103 0.0 0.0 0.00 0.00 0.00 55 1015.3
20260905010330 89 103 0.0 0.0 0.00 0.00 0.00 55 1015.3
20260905005835 89 103 0.0 0.0 0.00 0.00 0.00 56 1015.3
20260905005342 89 103 0.0 0.0 0.00 0.00 0.00 54 1015.2
20260905004830 89 103 0.0 0.0 0.00 0.00 0.00 54 1015.2
20260905004330 90 103 0.0 0.0 0.00 0.00 0.00 53 1015.1